TimeCDT,TemperatureF,Dew PointF,Humidity,Sea Level PressureIn,VisibilityMPH,Wind Direction,Wind SpeedMPH,Gust SpeedMPH,PrecipitationIn,Events,Conditions,WindDirDegrees,DateUTC
12:15 AM,45.5,43.2,92,30.15,10.0,Calm,Calm,-,N/A,,Clear,0,2012-10-09 05:15:00
12:35 AM,45.5,43.3,92,30.14,10.0,Calm,Calm,-,N/A,,Clear,0,2012-10-09 05:35:00
12:55 AM,45.0,42.8,92,30.13,10.0,Calm,Calm,-,N/A,,Clear,0,2012-10-09 05:55:00
1:15 AM,44.4,42.3,92,30.13,10.0,Calm,Calm,-,N/A,,Clear,0,2012-10-09 06:15:00
1:35 AM,44.8,43.0,93,30.13,10.0,Calm,Calm,-,N/A,,Clear,0,2012-10-09 06:35:00
1:55 AM,44.2,42.3,93,30.13,10.0,Calm,Calm,-,N/A,,Clear,0,2012-10-09 06:55:00
2:15 AM,44.8,43.0,93,30.13,10.0,Calm,Calm,-,N/A,,Clear,0,2012-10-09 07:15:00
3:15 AM,43.2,41.4,93,30.13,10.0,Calm,Calm,-,N/A,,Clear,0,2012-10-09 08:15:00
3:35 AM,43.7,41.9,93,30.12,10.0,Calm,Calm,-,N/A,,Clear,0,2012-10-09 08:35:00
3:55 AM,42.8,40.8,93,30.12,10.0,Calm,Calm,-,N/A,,Clear,0,2012-10-09 08:55:00
4:15 AM,42.8,41.0,93,30.12,10.0,Calm,Calm,-,N/A,,Clear,0,2012-10-09 09:15:00
4:35 AM,43.2,41.4,93,30.12,10.0,Calm,Calm,-,N/A,,Clear,0,2012-10-09 09:35:00
4:55 AM,42.4,40.6,93,30.12,7.0,Calm,Calm,-,N/A,,Clear,0,2012-10-09 09:55:00
5:15 AM,43.2,41.5,94,30.12,7.0,Calm,Calm,-,N/A,,Clear,0,2012-10-09 10:15:00
5:35 AM,42.1,40.5,94,30.12,10.0,Calm,Calm,-,N/A,,Clear,0,2012-10-09 10:35:00
5:55 AM,42.1,40.3,93,30.13,10.0,Calm,Calm,-,N/A,,Clear,0,2012-10-09 10:55:00
6:15 AM,42.1,40.1,93,30.13,10.0,Calm,Calm,-,N/A,,Clear,0,2012-10-09 11:15:00
6:35 AM,41.9,40.3,94,30.13,10.0,Calm,Calm,-,N/A,,Clear,0,2012-10-09 11:35:00
6:55 AM,42.8,41.0,93,30.13,10.0,Calm,Calm,-,N/A,,Clear,0,2012-10-09 11:55:00
7:15 AM,42.3,40.5,93,30.14,7.0,Calm,Calm,-,N/A,,Clear,0,2012-10-09 12:15:00
7:35 AM,42.3,40.8,95,30.14,7.0,Calm,Calm,-,N/A,,Clear,0,2012-10-09 12:35:00
7:55 AM,44.6,42.8,93,30.14,10.0,Calm,Calm,-,N/A,,Clear,0,2012-10-09 12:55:00
8:15 AM,46.9,44.6,92,30.14,10.0,Calm,Calm,-,N/A,,Clear,0,2012-10-09 13:15:00
8:35 AM,49.6,45.5,86,30.14,10.0,ESE,4.6,-,N/A,,Clear,120,2012-10-09 13:35:00
8:55 AM,52.0,47.3,84,30.15,10.0,SE,3.5,-,N/A,,Clear,140,2012-10-09 13:55:00
9:15 AM,54.1,47.5,78,30.15,10.0,SSE,3.5,-,N/A,,Clear,150,2012-10-09 14:15:00
9:35 AM,56.1,48.0,74,30.15,10.0,SE,3.5,-,N/A,,Clear,140,2012-10-09 14:35:00
9:55 AM,57.6,48.7,72,30.15,10.0,SSE,4.6,-,N/A,,Clear,150,2012-10-09 14:55:00
10:15 AM,59.4,48.9,68,30.15,10.0,SE,6.9,-,N/A,,Clear,130,2012-10-09 15:15:00
10:35 AM,61.2,49.3,65,30.14,10.0,SE,6.9,-,N/A,,Clear,130,2012-10-09 15:35:00
10:55 AM,62.1,49.6,64,30.13,10.0,SE,5.8,-,N/A,,Clear,130,2012-10-09 15:55:00
11:15 AM,63.3,50.2,62,30.13,10.0,ESE,4.6,-,N/A,,Clear,120,2012-10-09 16:15:00
11:35 AM,64.8,50.5,60,30.13,10.0,SSW,4.6,-,N/A,,Clear,200,2012-10-09 16:35:00
11:55 AM,65.8,50.9,58,30.12,10.0,South,3.5,-,N/A,,Clear,180,2012-10-09 16:55:00
12:15 PM,67.1,51.3,57,30.11,10.0,South,4.6,-,N/A,,Clear,170,2012-10-09 17:15:00
12:35 PM,68.5,51.8,55,30.09,10.0,Calm,Calm,-,N/A,,Clear,0,2012-10-09 17:35:00
12:55 PM,68.0,52.2,57,30.08,10.0,SSW,4.6,-,N/A,,Mostly Cloudy,200,2012-10-09 17:55:00
1:15 PM,69.1,52.9,56,30.07,10.0,SE,5.8,-,N/A,,Overcast,140,2012-10-09 18:15:00
1:35 PM,70.5,53.4,55,30.05,10.0,Calm,Calm,-,N/A,,Scattered Clouds,0,2012-10-09 18:35:00
1:55 PM,71.6,53.6,53,30.04,10.0,SSW,4.6,-,N/A,,Clear,210,2012-10-09 18:55:00
2:15 PM,71.6,53.8,53,30.03,10.0,SE,3.5,-,N/A,,Scattered Clouds,130,2012-10-09 19:15:00
2:35 PM,72.3,54.5,53,30.02,10.0,SSW,3.5,-,N/A,,Mostly Cloudy,200,2012-10-09 19:35:00
2:55 PM,74.7,55.8,52,30.01,10.0,SE,3.5,-,N/A,,Mostly Cloudy,140,2012-10-09 19:55:00
3:15 PM,75.0,55.8,51,30.00,10.0,South,6.9,-,N/A,,Mostly Cloudy,170,2012-10-09 20:15:00
3:35 PM,75.2,55.9,51,29.99,10.0,SE,4.6,-,N/A,,Scattered Clouds,130,2012-10-09 20:35:00
3:55 PM,75.7,56.7,51,29.98,10.0,SSE,6.9,-,N/A,,Scattered Clouds,160,2012-10-09 20:55:00
4:15 PM,75.6,56.8,52,29.98,10.0,South,5.8,-,N/A,,Mostly Cloudy,170,2012-10-09 21:15:00
4:35 PM,73.8,57.4,56,29.97,10.0,South,5.8,-,N/A,,Scattered Clouds,180,2012-10-09 21:35:00
4:55 PM,74.5,58.3,57,29.96,10.0,South,3.5,-,N/A,,Clear,170,2012-10-09 21:55:00
5:15 PM,74.7,58.3,57,29.96,10.0,South,3.5,-,N/A,,Scattered Clouds,170,2012-10-09 22:15:00
5:35 PM,73.9,58.5,58,29.96,10.0,South,4.6,-,N/A,,Mostly Cloudy,170,2012-10-09 22:35:00
5:55 PM,73.8,58.1,58,29.95,10.0,SSE,5.8,-,N/A,,Scattered Clouds,150,2012-10-09 22:55:00
6:15 PM,72.3,58.6,62,29.96,10.0,South,3.5,-,N/A,,Clear,170,2012-10-09 23:15:00
6:35 PM,71.6,59.0,64,29.96,10.0,SSE,3.5,-,N/A,,Mostly Cloudy,160,2012-10-09 23:35:00
6:55 PM,71.1,59.2,66,29.96,10.0,SE,3.5,-,N/A,,Overcast,140,2012-10-09 23:55:00
7:15 PM,70.7,59.0,66,29.96,10.0,SE,4.6,-,N/A,,Overcast,140,2012-10-10 00:15:00
7:35 PM,70.2,59.4,69,29.96,10.0,SE,3.5,-,N/A,,Overcast,140,2012-10-10 00:35:00
7:55 PM,70.2,59.2,68,29.97,10.0,SE,3.5,-,N/A,,Overcast,130,2012-10-10 00:55:00
8:15 PM,70.0,59.0,68,29.97,10.0,SE,3.5,-,N/A,,Overcast,130,2012-10-10 01:15:00
8:35 PM,70.2,59.0,68,29.97,10.0,SE,3.5,-,N/A,,Overcast,140,2012-10-10 01:35:00
8:55 PM,70.2,59.0,68,29.98,10.0,SE,5.8,-,N/A,,Overcast,140,2012-10-10 01:55:00
9:15 PM,70.2,59.0,68,29.99,10.0,SSE,4.6,-,N/A,,Overcast,150,2012-10-10 02:15:00
9:35 PM,70.3,59.0,67,29.99,10.0,SE,5.8,-,N/A,,Overcast,140,2012-10-10 02:35:00
9:55 PM,70.5,59.0,67,30.01,10.0,Calm,Calm,-,N/A,,Overcast,0,2012-10-10 02:55:00
10:15 PM,70.2,59.4,69,30.02,10.0,Calm,Calm,-,N/A,,Overcast,0,2012-10-10 03:15:00
10:35 PM,69.8,59.5,70,30.03,10.0,Calm,Calm,-,N/A,,Overcast,0,2012-10-10 03:35:00
10:55 PM,69.8,59.7,70,30.03,10.0,SE,3.5,-,N/A,,Overcast,140,2012-10-10 03:55:00
11:15 PM,68.9,59.9,73,30.03,10.0,Calm,Calm,-,N/A,,Overcast,0,2012-10-10 04:15:00
11:35 PM,68.4,59.9,74,30.03,10.0,SE,3.5,-,N/A,,Overcast,140,2012-10-10 04:35:00
11:55 PM,68.4,59.9,74,30.04,10.0,SE,3.5,-,N/A,,Overcast,140,2012-10-10 04:55:00